Terug naar catalogus

CZ-3B R/B

ActiefHEO
NORAD 63525·ROCKET BODY·🇨🇳 China

Gelanceerd Apr 10, 2025 vanaf Xichang Satellite Launch Center

Loading…

Volgende Passages (komende 24 uur)

TLE

VersSource: Space-Track

Epoch: Sep 14, 2026, 04:56 UTC

1 63525U 25073B   26257.20578776  .00300518  23811-6  15635-2 0  9992
2 63525  19.2094 128.5596 5991292  44.9079 350.3053  4.17520276 16666

Volg CZ-3B R/B in realtime met AllMySat

Download on the App Store